User: anonymous   Login
Location: Muenchen
(48.1800°N, 11.5800°E)
Time: 13:43:25
(UTC+01:00)
Language:

Sich 1 Rocket - Orbit

View from above orbital plane
View from above orbital plane
View from above satellite
View from above satellite

Ground track
Ground track

The orbit data is extracted from the following two-line orbital elements,

1 23659U 95046C   15060.82680672  .00000452  00000-0  59043-4 0  9996
2 23659 082.5331 003.2310 0027398 095.5172 294.6799 14.77983695 50703
Epoch (UTC): 01 March 2015 19:50:36
Eccentricity: 0.0027398
inclination: 82.5331°
perigee height: 616 km
apogee height: 655 km
right ascension of ascending node: 3.2310°
argument of perigee: 95.5172°
revolutions per day: 14.77983695
mean anomaly at epoch: 294.6799°
orbit number at epoch: 5070

The dashed part of the orbit path shows where the satellite is in the earth's shadow,  

DLR